{"data":{"norad_id":63453,"intl_designator":"2025-069W","name":"STARLINK-33784","alt_names":[],"object_type":"PAYLOAD","status":"ACTIVE","operator":null,"country":"US","launch_date":"2025-04-04","launch_site_code":"AFWTR","launch_vehicle":null,"mission":null,"orbit_class":"UNKNOWN","rcs_meters":null,"size_class":null,"mass_kg":null,"dimensions":null,"purposes":["comms"],"wikipedia_slug":null,"has_3d_model":false,"image_url":null,"decayed_at":null,"tle_current":{"epoch":"2026-09-20T21:09:16.480800Z","epoch_age_seconds":122579,"freshness":"FRESH","line1":"1 63453U 25069W   26263.88144075  .00014537  00000+0  44067-3 0  9992","line2":"2 63453  53.1587 314.1157 0001325  89.9570 270.1585 15.34390314 83319","mean_motion":15.34390314,"eccentricity":0.0001325,"inclination_deg":53.1587,"raan_deg":314.1157,"arg_perigee_deg":89.957,"mean_anomaly_deg":270.1585,"bstar":0.00044067,"rev_number":8331,"period_min":93.848350505164,"perigee_km":461.82561404541,"apogee_km":463.63844433815,"semimajor_km":6840.8690291918,"source":"CELESTRAK","updated_at":"2026-09-21T09:00:35.005563Z"}}}